Regional Weather Roundup
Issued by NWS Sioux Falls, SD

Home | Current Version | Previous Version | Graphics & Text | Print | Product List | Glossary Off
Versions: 1 2 3 4 5 6 7 8 9 10 11 12 13 14 15 16 17 18 19 20 21 22 23 24 25 26 27 28 29 30 31 32 33 34 35 36 37 38 39 40 41 42 43 44 45 46 47 48 49 50

000
ASUS43 KFSD 271602
RWRFSD

WEATHER ROUNDUP FOR SE SOUTH DAKOTA/SW MINNESOTA/NW IOWA
NATIONAL WEATHER SERVICE SIOUX FALLS SD
1100 AM CDT THU APR 27 2017

NOTE: "FAIR" INDICATES FEW OR NO CLOUDS BELOW 12,000 FEET WITH NO
SIGNIFICANT WEATHER AND OR OBSTRUCTIONS TO VISIBILITY.


SDZ038>040-050-052>070-271700-
SOUTHEAST SOUTH DAKOTA

CITY           SKY/WX    TMP DP  RH WIND       PRES   REMARKS
BROOKINGS      CLOUDY    31  25  78 NW18      29.66S WCI  19
CHAMBERLAIN    PTSUNNY   40  30  66 NW8       29.73S
HURON          CLOUDY    36  26  67 N14       29.73R
MADISON        CLOUDY    32  32 100 NW16G23   29.68S WCI  21
MITCHELL       CLOUDY    37  27  67 NW12      29.74R
SIOUX FALLS    CLOUDY    35  27  72 NW14      29.70R WCI  26
WINNER         CLOUDY    39  29  67 VRB5      29.72F
YANKTON        PTSUNNY   37  27  65 NW9       29.72F
$$

MNZ071-072-080-081-089-090-097-098-271700-
SOUTHWEST MINNESOTA

CITY           SKY/WX    TMP DP  RH WIND       PRES   REMARKS
FAIRMONT       CLOUDY    33  26  75 NW18      29.64R WCI  22
JACKSON        CLOUDY    32  27  80 NW17G24   29.65R WCI  21
LUVERNE        CLOUDY    34  23  64 NW16G23   29.68R WCI  23
MARSHALL       CLOUDY    32  25  75 NW20G25   29.65R WCI  20
MONTEVIDEO     CLOUDY    30  25  80 N16G26    29.64R WCI  19
PIPESTONE      CLOUDY    34  21  60 N16G25    29.65R WCI  23
REDWOOD FALLS  CLOUDY    32  24  72 NW14G21   29.63R WCI  22
TRACY          CLOUDY    32  26  81 NW17      29.66R WCI  20
WINDOM         CLOUDY    30  27  86 W17G23    29.64R WCI  18
WORTHINGTON    CLOUDY    32  24  72 NW17G23   29.66R WCI  21
$$

IAZ001>003-012>014-020>022-031-032-NEZ013-014-SDZ071-271700-
NORTHWEST IOWA

CITY           SKY/WX    TMP DP  RH WIND       PRES   REMARKS
CHEROKEE       CLOUDY    34  30  86 NW13      29.69S WCI  25
DENISON        CLOUDY    37  32  81 NW13G20   29.71S
ESTHERVILLE    CLOUDY    31  26  82 NW20      29.65R WCI  19
LE MARS        CLOUDY    36  28  75 W13       29.72R
ORANGE CITY    CLOUDY    34  30  86 NW15      29.69R WCI  24
SHELDON        CLOUDY    32  27  80 NW15G22   29.67R WCI  22
SIOUX CITY     CLOUDY    39  30  70 NW16G24   29.72S
SPENCER        CLOUDY    33  26  75 NW22G28   29.67R WCI  21
STORM LAKE       N/A     34  30  86 NW16      29.67S WCI  23
$$

ABBREVIATIONS USED IN REMARKS
   TC - TEMPERATURE IN CELSIUS
  WCI - WIND CHILL INDEX
   HX - HEAT INDEX
  VSB - VISIBILITY




USA.gov is the U.S. government's official web portal to all federal, state and local government web resources and services.